Location: Malvern Link
(52.1333°N, 2.3000°W)
Time: 10:42:12
(UTC+00:00)

MOZHAYETS 4 - Pass Details

Date: 30 June 2022
Orbit: 660 x 679 km, 98.2° (Epoch: 10 August)

Event Time Altitude Azimuth Distance (km) Brightness Sun altitude
Rises 00:29:19 0° 107° (ESE) 3,029 11.0 -14.6°
Reaches altitude 10° 00:32:33 10° 83° (E) 2,115 10.4 -14.6°
Maximum altitude 00:34:52 14° 53° (NE) 1,865 10.6 -14.5°
Drops below altitude 10° 00:37:11 10° 22° (NNE) 2,116 11.5 -14.5°
Sets 00:40:25 0° 358° (N) 3,031 12.9 -14.4°
